When you browse on this site, cookies collect data to enhance your experience and personalize the content and advertising you see.
Visit our Privacy Policy to learn more. By continuing to use the site, you agree to this use of cookies and data.
  • In Latvia
  • List of Countries
  • For 7 days
  • Water Temperature
  • Satellite Maps
  • Weather Map
  • Weather Widgets
  • user-avatar
    Login

    Hourly Weather Kitzbuhel

    Today, 18 June, Tuesday

    Time Temperature Precipitation Wind Pressure Humidity
    00:00 +14°C° 0 mm 1 mps 679 mmHg 91%
    01:00 +14°C° 0 mm 1 mps 679 mmHg 91%
    02:00 +13°C° 0 mm 1 mps 678 mmHg 90%
    03:00 +13°C° 0 mm 1 mps 678 mmHg 90%
    04:00 +13°C° 0 mm 1 mps 678 mmHg 90%
    05:00 +14°C° 0 mm 1 mps 678 mmHg 86%
    06:00 +15°C° 0 mm 0 mps 679 mmHg 82%
    07:00 +17°C° 0 mm 0 mps 679 mmHg 78%
    08:00 +19°C° 0 mm 0 mps 679 mmHg 69%
    09:00 +23°C° 0 mm 1 mps 680 mmHg 60%
    10:00 +26°C° 0 mm 1 mps 680 mmHg 51%
    11:00 +26°C° 0.2 mm 1 mps 680 mmHg 48%
    12:00 +27°C° 0.2 mm 1 mps 680 mmHg 45%
    13:00 +27°C° 0.2 mm 1 mps 679 mmHg 42%
    14:00 +27°C° 0.3 mm 1 mps 679 mmHg 46%
    15:00 +26°C° 0.3 mm 2 mps 679 mmHg 50%
    16:00 +25°C° 0.3 mm 2 mps 678 mmHg 54%
    17:00 +24°C° 0.6 mm 1 mps 678 mmHg 63%
    18:00 +23°C° 0.6 mm 1 mps 678 mmHg 73%
    19:00 +19°C° 0.6 mm 0 mps 678 mmHg 83%
    20:00 +20°C° 0.7 mm 1 mps 678 mmHg 85%
    21:00 +18°C° 0.7 mm 1 mps 678 mmHg 88%
    22:00 +16°C° 0.7 mm 1 mps 677 mmHg 90%
    23:00 +16°C° 0.1 mm 1 mps 677 mmHg 90%

    Tomorrow, 19 June, Wednesday

    Time Temperature Precipitation Wind Pressure Humidity
    00:00 +15°C° 0.1 mm 1 mps 677 mmHg 90%
    01:00 +15°C° 0.1 mm 1 mps 677 mmHg 90%
    02:00 +15°C° 0 mm 1 mps 677 mmHg 90%
    03:00 +14°C° 0 mm 1 mps 676 mmHg 89%
    04:00 +14°C° 0 mm 1 mps 676 mmHg 89%
    05:00 +16°C° 0.1 mm 1 mps 676 mmHg 87%
    06:00 +16°C° 0.1 mm 0 mps 677 mmHg 85%
    07:00 +18°C° 0.1 mm 0 mps 677 mmHg 82%
    08:00 +19°C° 0.5 mm 0 mps 677 mmHg 77%
    09:00 +21°C° 0.5 mm 0 mps 677 mmHg 71%
    10:00 +24°C° 0.5 mm 1 mps 677 mmHg 65%
    11:00 +25°C° 0.5 mm 1 mps 677 mmHg 60%
    12:00 +26°C° 0.5 mm 1 mps 677 mmHg 56%
    13:00 +26°C° 0.5 mm 1 mps 677 mmHg 52%
    14:00 +24°C° 1 mm 1 mps 677 mmHg 62%
    15:00 +23°C° 1 mm 1 mps 676 mmHg 73%
    16:00 +21°C° 1 mm 1 mps 676 mmHg 83%
    17:00 +20°C° 0.8 mm 1 mps 676 mmHg 85%
    18:00 +19°C° 0.8 mm 1 mps 676 mmHg 87%
    19:00 +19°C° 0.8 mm 1 mps 676 mmHg 90%
    20:00 +18°C° 0 mm 1 mps 676 mmHg 89%
    21:00 +16°C° 0 mm 1 mps 676 mmHg 88%
    22:00 +15°C° 0 mm 1 mps 676 mmHg 88%
    23:00 +14°C° 0 mm 1 mps 676 mmHg 86%

    Day after tomorrow, 20 June, Thursday

    Time Temperature Precipitation Wind Pressure Humidity
    00:00 +14°C° 0 mm 1 mps 676 mmHg 84%
    01:00 +13°C° 0 mm 1 mps 676 mmHg 83%
    02:00 +13°C° 0 mm 1 mps 676 mmHg 82%
    03:00 +13°C° 0 mm 1 mps 675 mmHg 81%
    04:00 +12°C° 0 mm 1 mps 675 mmHg 80%
    05:00 +15°C° 0 mm 1 mps 676 mmHg 76%
    06:00 +18°C° 0 mm 1 mps 676 mmHg 72%
    07:00 +18°C° 0 mm 0 mps 677 mmHg 67%
    08:00 +20°C° 0 mm 0 mps 677 mmHg 59%
    09:00 +23°C° 0 mm 0 mps 677 mmHg 50%
    10:00 +27°C° 0 mm 1 mps 678 mmHg 42%
    11:00 +28°C° 0 mm 1 mps 678 mmHg 40%
    12:00 +28°C° 0 mm 1 mps 677 mmHg 37%
    13:00 +29°C° 0 mm 1 mps 677 mmHg 35%
    14:00 +28°C° 0.1 mm 1 mps 677 mmHg 43%
    15:00 +26°C° 0.1 mm 1 mps 676 mmHg 52%
    16:00 +25°C° 0.1 mm 1 mps 676 mmHg 60%
    17:00 +23°C° 1.8 mm 2 mps 676 mmHg 71%
    18:00 +19°C° 1.8 mm 2 mps 675 mmHg 83%
    19:00 +16°C° 1.8 mm 2 mps 675 mmHg 94%
    20:00 +16°C° 0.6 mm 2 mps 676 mmHg 95%
    21:00 +15°C° 0.6 mm 1 mps 676 mmHg 96%
    22:00 +14°C° 0.6 mm 1 mps 677 mmHg 97%
    23:00 +14°C° 0 mm 1 mps 677 mmHg 96%

    21 June, Friday

    Time Temperature Precipitation Wind Pressure Humidity
    00:00 +12°C° 0 mm 0 mps 677 mmHg 95%
    01:00 +12°C° 0 mm 0 mps 677 mmHg 94%
    02:00 +11°C° 0 mm 0 mps 676 mmHg 94%
    03:00 +11°C° 0 mm 0 mps 676 mmHg 94%
    04:00 +11°C° 0 mm 0 mps 676 mmHg 94%
    05:00 +12°C° 0 mm 0 mps 677 mmHg 91%
    06:00 +14°C° 0 mm 0 mps 677 mmHg 89%
    07:00 +15°C° 0 mm 0 mps 678 mmHg 87%
    08:00 +19°C° 0.1 mm 1 mps 678 mmHg 78%
    09:00 +21°C° 0.1 mm 1 mps 679 mmHg 69%
    10:00 +23°C° 0.1 mm 2 mps 679 mmHg 60%
    11:00 +23°C° 0.5 mm 2 mps 679 mmHg 61%
    12:00 +23°C° 0.5 mm 2 mps 679 mmHg 62%
    13:00 +23°C° 0.5 mm 1 mps 678 mmHg 62%
    14:00 +23°C° 0.4 mm 1 mps 678 mmHg 67%
    15:00 +22°C° 0.4 mm 1 mps 678 mmHg 72%
    16:00 +21°C° 0.4 mm 1 mps 677 mmHg 77%
    17:00 +20°C° 1.5 mm 1 mps 677 mmHg 84%
    18:00 +18°C° 1.5 mm 1 mps 677 mmHg 91%
    19:00 +16°C° 1.5 mm 1 mps 677 mmHg 98%
    20:00 +15°C° 2.4 mm 1 mps 677 mmHg 98%
    21:00 +15°C° 2.4 mm 1 mps 678 mmHg 98%
    22:00 +13°C° 2.4 mm 0 mps 678 mmHg 99%
    23:00 +13°C° 0.7 mm 0 mps 678 mmHg 98%

    22 June, Saturday

    Time Temperature Precipitation Wind Pressure Humidity
    00:00 +14°C° 0.7 mm 1 mps 677 mmHg 98%
    01:00 +14°C° 0.7 mm 1 mps 677 mmHg 97%
    02:00 +13°C° 0.2 mm 0 mps 677 mmHg 97%
    03:00 +12°C° 0.2 mm 0 mps 677 mmHg 96%
    04:00 +12°C° 0.2 mm 0 mps 677 mmHg 96%
    05:00 +13°C° 0.1 mm 0 mps 677 mmHg 96%
    06:00 +13°C° 0.1 mm 0 mps 677 mmHg 97%
    07:00 +13°C° 0.1 mm 0 mps 678 mmHg 97%
    08:00 +13°C° 0.9 mm 0 mps 678 mmHg 97%
    09:00 +13°C° 0.9 mm 0 mps 678 mmHg 98%
    10:00 +13°C° 0.9 mm 0 mps 678 mmHg 98%
    11:00 +18°C° 0.2 mm 1 mps 678 mmHg 88%
    12:00 +20°C° 0.2 mm 1 mps 679 mmHg 77%
    13:00 +22°C° 0.2 mm 1 mps 679 mmHg 66%
    14:00 +22°C° 0.1 mm 1 mps 679 mmHg 65%
    15:00 +22°C° 0.1 mm 1 mps 679 mmHg 63%
    16:00 +21°C° 0.1 mm 2 mps 679 mmHg 62%
    17:00 +21°C° 0.1 mm 1 mps 678 mmHg 70%
    18:00 +20°C° 0.1 mm 1 mps 678 mmHg 78%
    19:00 +19°C° 0.1 mm 1 mps 678 mmHg 86%
    20:00 +18°C° 0.2 mm 1 mps 678 mmHg 89%
    21:00 +16°C° 0.2 mm 1 mps 678 mmHg 92%
    22:00 +14°C° 0.2 mm 1 mps 678 mmHg 95%
    23:00 +13°C° 0.1 mm 0 mps 678 mmHg 94%

    23 June, Sunday

    Time Temperature Precipitation Wind Pressure Humidity
    00:00 +13°C° 0.1 mm 0 mps 678 mmHg 94%
    01:00 +13°C° 0.1 mm 0 mps 678 mmHg 94%
    02:00 +13°C° 0.1 mm 0 mps 679 mmHg 94%
    03:00 +13°C° 0.1 mm 0 mps 679 mmHg 94%
    04:00 +14°C° 0.1 mm 0 mps 679 mmHg 94%
    05:00 +15°C° 0 mm 1 mps 679 mmHg 93%
    06:00 +15°C° 0 mm 1 mps 679 mmHg 91%
    07:00 +15°C° 0 mm 1 mps 679 mmHg 90%
    08:00 +19°C° 0 mm 1 mps 680 mmHg 77%
    09:00 +21°C° 0 mm 1 mps 681 mmHg 64%
    10:00 +22°C° 0 mm 0 mps 681 mmHg 51%
    11:00 +25°C° 0 mm 1 mps 681 mmHg 47%
    12:00 +25°C° 0 mm 1 mps 681 mmHg 44%
    13:00 +26°C° 0 mm 2 mps 682 mmHg 40%
    14:00 +25°C° 0.1 mm 2 mps 681 mmHg 46%
    15:00 +25°C° 0.1 mm 2 mps 681 mmHg 52%
    16:00 +24°C° 0.1 mm 2 mps 681 mmHg 58%
    17:00 +23°C° 0.2 mm 1 mps 681 mmHg 67%
    18:00 +21°C° 0.2 mm 1 mps 681 mmHg 75%
    19:00 +20°C° 0.2 mm 1 mps 681 mmHg 84%
    20:00 +19°C° 0 mm 1 mps 681 mmHg 86%
    21:00 +16°C° 0 mm 1 mps 681 mmHg 89%
    22:00 +15°C° 0 mm 1 mps 681 mmHg 91%
    23:00 +15°C° 0 mm 1 mps 681 mmHg 89%
    Show more